Time,TemperatureF,DewpointF,PressureIn,WindDirection,WindDirectionDegrees,WindSpeedMPH,WindSpeedGustMPH,Humidity,HourlyPrecipIn,Conditions,Clouds,dailyrainin,SolarRadiationWatts/m^2,SoftwareType,DateUTC
2013-07-18 00:01:00,55.0,49.0,-100.00,SW,227,6.0,9.0,80,0.00,,,0.20,0.000000,,2013-07-18 06:01:00,
2013-07-18 00:12:00,55.0,49.0,-100.00,SW,227,6.0,9.0,80,0.00,,,0.20,0.000000,,2013-07-18 06:12:00,
2013-07-18 00:22:00,55.0,49.0,-100.00,SW,227,6.0,9.0,80,0.00,,,0.20,0.000000,,2013-07-18 06:22:00,
2013-07-18 00:32:00,55.0,49.0,-100.00,SW,227,6.0,9.0,80,0.00,,,0.20,0.000000,,2013-07-18 06:32:00,
2013-07-18 00:40:00,56.0,47.0,-100.00,SW,231,10.0,14.0,71,0.00,,,0.20,0.000000,,2013-07-18 06:40:00,
2013-07-18 01:01:00,56.0,47.0,-100.00,SW,231,10.0,14.0,71,0.00,,,0.20,0.000000,,2013-07-18 07:01:00,
2013-07-18 01:12:00,56.0,47.0,-100.00,SW,231,10.0,14.0,71,0.00,,,0.20,0.000000,,2013-07-18 07:12:00,
2013-07-18 01:22:00,56.0,47.0,-100.00,SW,231,10.0,14.0,71,0.00,,,0.20,0.000000,,2013-07-18 07:22:00,
2013-07-18 01:32:00,56.0,47.0,-100.00,SW,231,10.0,14.0,71,0.00,,,0.20,0.000000,,2013-07-18 07:32:00,
2013-07-18 03:40:00,58.0,50.0,-100.00,SSW,213,11.0,16.0,76,-99.99,,,0.20,0.000000,,2013-07-18 09:40:00,
2013-07-18 04:01:00,58.0,50.0,-100.00,SSW,213,11.0,16.0,76,-99.99,,,0.20,0.000000,,2013-07-18 10:01:00,
2013-07-18 04:11:00,58.0,50.0,-100.00,SSW,213,11.0,16.0,76,-99.99,,,0.20,0.000000,,2013-07-18 10:11:00,
2013-07-18 04:21:00,58.0,50.0,-100.00,SSW,213,11.0,16.0,76,-99.99,,,0.20,0.000000,,2013-07-18 10:21:00,
2013-07-18 04:32:00,58.0,50.0,-100.00,SSW,213,11.0,16.0,76,-99.99,,,0.20,0.000000,,2013-07-18 10:32:00,
2013-07-18 04:40:00,59.0,48.0,-100.00,SW,219,10.0,17.0,67,0.00,,,0.20,0.000000,,2013-07-18 10:40:00,
2013-07-18 05:01:00,59.0,48.0,-100.00,SW,219,10.0,17.0,67,0.00,,,0.20,0.000000,,2013-07-18 11:01:00,
2013-07-18 05:11:00,59.0,48.0,-100.00,SW,219,10.0,17.0,67,0.00,,,0.20,0.000000,,2013-07-18 11:11:00,
2013-07-18 05:22:00,59.0,48.0,-100.00,SW,219,10.0,17.0,67,0.00,,,0.20,0.000000,,2013-07-18 11:22:00,
2013-07-18 05:32:00,59.0,48.0,-100.00,SW,219,10.0,17.0,67,0.00,,,0.20,0.000000,,2013-07-18 11:32:00,
2013-07-18 06:11:00,60.0,46.0,-100.00,SW,225,8.0,16.0,60,0.00,,,0.20,0.000000,,2013-07-18 12:11:00,
2013-07-18 06:22:00,60.0,46.0,-100.00,SW,225,8.0,16.0,60,0.00,,,0.20,0.000000,,2013-07-18 12:22:00,
2013-07-18 06:32:00,60.0,46.0,-100.00,SW,225,8.0,16.0,60,0.00,,,0.20,0.000000,,2013-07-18 12:32:00,
2013-07-18 06:40:00,57.0,45.0,-100.00,South,170,3.0,10.0,63,0.00,,,0.20,26.000000,,2013-07-18 12:40:00,
2013-07-18 07:11:00,57.0,45.0,-100.00,South,170,3.0,10.0,63,0.00,,,0.20,26.000000,,2013-07-18 13:11:00,
2013-07-18 07:22:00,57.0,45.0,-100.00,South,170,3.0,10.0,63,0.00,,,0.20,26.000000,,2013-07-18 13:22:00,
2013-07-18 07:32:00,57.0,45.0,-100.00,South,170,3.0,10.0,63,0.00,,,0.20,26.000000,,2013-07-18 13:32:00,
2013-07-18 07:40:00,67.0,46.0,-100.00,NNE,13,3.0,6.0,47,0.00,,,0.20,220.000000,,2013-07-18 13:40:00,
2013-07-18 08:40:00,69.0,43.0,-100.00,NNE,17,4.0,7.0,39,0.00,,,0.20,445.000000,,2013-07-18 14:40:00,
2013-07-18 09:32:00,69.0,43.0,-100.00,NNE,17,4.0,7.0,39,0.00,,,0.20,445.000000,,2013-07-18 15:32:00,
2013-07-18 09:40:00,69.0,44.0,-100.00,NE,39,3.0,8.0,41,0.00,,,0.20,666.000000,,2013-07-18 15:40:00,
2013-07-18 10:11:00,69.0,44.0,-100.00,NE,39,3.0,8.0,41,0.00,,,0.20,666.000000,,2013-07-18 16:11:00,
2013-07-18 10:22:00,69.0,44.0,-100.00,NE,39,3.0,8.0,41,0.00,,,0.20,666.000000,,2013-07-18 16:22:00,
2013-07-18 10:32:00,69.0,44.0,-100.00,NE,39,3.0,8.0,41,0.00,,,0.20,666.000000,,2013-07-18 16:32:00,
2013-07-18 10:40:00,70.0,46.0,-100.00,North,3,4.0,9.0,43,0.00,,,0.20,857.000000,,2013-07-18 16:40:00,
2013-07-18 11:11:00,70.0,46.0,-100.00,North,3,4.0,9.0,43,0.00,,,0.20,857.000000,,2013-07-18 17:11:00,
2013-07-18 11:22:00,70.0,46.0,-100.00,North,3,4.0,9.0,43,0.00,,,0.20,857.000000,,2013-07-18 17:22:00,
2013-07-18 11:33:00,70.0,46.0,-100.00,North,3,4.0,9.0,43,0.00,,,0.20,857.000000,,2013-07-18 17:33:00,
2013-07-18 11:40:00,71.0,49.0,-100.00,NE,47,4.0,9.0,45,0.00,,,0.20,1018.000000,,2013-07-18 17:40:00,
2013-07-18 12:11:00,71.0,49.0,-100.00,NE,47,4.0,9.0,45,0.00,,,0.20,1018.000000,,2013-07-18 18:11:00,
2013-07-18 12:22:00,71.0,49.0,-100.00,NE,47,4.0,9.0,45,0.00,,,0.20,1018.000000,,2013-07-18 18:22:00,
2013-07-18 12:32:00,71.0,49.0,-100.00,NE,47,4.0,9.0,45,0.00,,,0.20,1018.000000,,2013-07-18 18:32:00,
2013-07-18 12:40:00,71.0,49.0,-100.00,NNE,33,3.0,9.0,45,0.00,,,0.20,1130.000000,,2013-07-18 18:40:00,
2013-07-18 13:11:00,71.0,49.0,-100.00,NNE,33,3.0,9.0,45,0.00,,,0.20,1130.000000,,2013-07-18 19:11:00,
2013-07-18 13:22:00,71.0,49.0,-100.00,NNE,33,3.0,9.0,45,0.00,,,0.20,1130.000000,,2013-07-18 19:22:00,
2013-07-18 13:32:00,71.0,49.0,-100.00,NNE,33,3.0,9.0,45,0.00,,,0.20,1130.000000,,2013-07-18 19:32:00,
2013-07-18 13:40:00,76.0,51.0,-100.00,North,10,4.0,8.0,41,0.00,,,0.20,1172.000000,,2013-07-18 19:40:00,
2013-07-18 14:11:00,76.0,51.0,-100.00,North,10,4.0,8.0,41,0.00,,,0.20,1172.000000,,2013-07-18 20:11:00,
2013-07-18 14:22:00,76.0,51.0,-100.00,North,10,4.0,8.0,41,0.00,,,0.20,1172.000000,,2013-07-18 20:22:00,
2013-07-18 14:32:00,76.0,51.0,-100.00,North,10,4.0,8.0,41,0.00,,,0.20,1172.000000,,2013-07-18 20:32:00,
2013-07-18 14:40:00,73.0,48.0,-100.00,North,349,3.0,10.0,41,0.00,,,0.20,1003.000000,,2013-07-18 20:40:00,
2013-07-18 15:01:00,73.0,48.0,-100.00,North,349,3.0,10.0,41,0.00,,,0.20,1003.000000,,2013-07-18 21:01:00,
2013-07-18 15:11:00,73.0,48.0,-100.00,North,349,3.0,10.0,41,0.00,,,0.20,1003.000000,,2013-07-18 21:11:00,
2013-07-18 15:22:00,73.0,48.0,-100.00,North,349,3.0,10.0,41,0.00,,,0.20,1003.000000,,2013-07-18 21:22:00,
2013-07-18 15:32:00,73.0,48.0,-100.00,North,349,3.0,10.0,41,0.00,,,0.20,1003.000000,,2013-07-18 21:32:00,
2013-07-18 15:40:00,75.0,47.0,-100.00,NNW,341,4.0,11.0,37,0.00,,,0.20,1039.000000,,2013-07-18 21:40:00,
2013-07-18 16:11:00,75.0,47.0,-100.00,NNW,341,4.0,11.0,37,0.00,,,0.20,1039.000000,,2013-07-18 22:11:00,
2013-07-18 16:22:00,75.0,47.0,-100.00,NNW,341,4.0,11.0,37,0.00,,,0.20,1039.000000,,2013-07-18 22:22:00,
2013-07-18 16:32:00,75.0,47.0,-100.00,NNW,341,4.0,11.0,37,0.00,,,0.20,1039.000000,,2013-07-18 22:32:00,
2013-07-18 16:40:00,79.0,49.0,-100.00,North,356,5.0,11.0,35,0.00,,,0.20,935.000000,,2013-07-18 22:40:00,
2013-07-18 17:32:00,79.0,49.0,-100.00,North,356,5.0,11.0,35,0.00,,,0.20,935.000000,,2013-07-18 23:32:00,
2013-07-18 17:40:00,77.0,49.0,-100.00,North,358,5.0,13.0,38,-99.99,,,0.20,739.000000,,2013-07-18 23:40:00,
2013-07-18 18:01:00,77.0,49.0,-100.00,North,358,5.0,13.0,38,-99.99,,,0.20,739.000000,,2013-07-19 00:01:00,
2013-07-18 18:11:00,77.0,49.0,-100.00,North,358,5.0,13.0,38,-99.99,,,0.20,739.000000,,2013-07-19 00:11:00,
2013-07-18 18:22:00,77.0,49.0,-100.00,North,358,5.0,13.0,38,-99.99,,,0.20,739.000000,,2013-07-19 00:22:00,
2013-07-18 18:32:00,77.0,49.0,-100.00,North,358,5.0,13.0,38,-99.99,,,0.20,739.000000,,2013-07-19 00:32:00,
2013-07-18 18:40:00,70.0,45.0,-100.00,NNW,343,4.0,11.0,40,0.00,,,0.20,432.000000,,2013-07-19 00:40:00,
2013-07-18 19:11:00,70.0,45.0,-100.00,NNW,343,4.0,11.0,40,0.00,,,0.20,432.000000,,2013-07-19 01:11:00,
2013-07-18 19:22:00,70.0,45.0,-100.00,NNW,343,4.0,11.0,40,0.00,,,0.20,432.000000,,2013-07-19 01:22:00,
2013-07-18 19:32:00,70.0,45.0,-100.00,NNW,343,4.0,11.0,40,0.00,,,0.20,432.000000,,2013-07-19 01:32:00,
2013-07-18 19:40:00,66.0,44.0,-100.00,NNE,28,3.0,11.0,45,0.00,,,0.20,224.000000,,2013-07-19 01:40:00,
2013-07-18 20:01:00,66.0,44.0,-100.00,NNE,28,3.0,11.0,45,0.00,,,0.20,224.000000,,2013-07-19 02:01:00,
2013-07-18 20:11:00,66.0,44.0,-100.00,NNE,28,3.0,11.0,45,0.00,,,0.20,224.000000,,2013-07-19 02:11:00,
2013-07-18 20:22:00,66.0,44.0,-100.00,NNE,28,3.0,11.0,45,0.00,,,0.20,224.000000,,2013-07-19 02:22:00,
2013-07-18 20:32:00,66.0,44.0,-100.00,NNE,28,3.0,11.0,45,0.00,,,0.20,224.000000,,2013-07-19 02:32:00,
2013-07-18 20:40:00,63.0,36.0,-100.00,North,354,4.0,13.0,37,0.00,,,0.20,44.000000,,2013-07-19 02:40:00,
2013-07-18 21:01:00,63.0,36.0,-100.00,North,354,4.0,13.0,37,0.00,,,0.20,44.000000,,2013-07-19 03:01:00,
2013-07-18 21:11:00,63.0,36.0,-100.00,North,354,4.0,13.0,37,0.00,,,0.20,44.000000,,2013-07-19 03:11:00,
2013-07-18 21:22:00,63.0,36.0,-100.00,North,354,4.0,13.0,37,0.00,,,0.20,44.000000,,2013-07-19 03:22:00,
2013-07-18 21:32:00,63.0,36.0,-100.00,North,354,4.0,13.0,37,0.00,,,0.20,44.000000,,2013-07-19 03:32:00,
2013-07-18 21:40:00,58.0,34.0,-100.00,NNW,340,2.0,14.0,40,0.00,,,0.20,5.000000,,2013-07-19 03:40:00,
2013-07-18 22:02:00,58.0,34.0,-100.00,NNW,340,2.0,14.0,40,0.00,,,0.20,5.000000,,2013-07-19 04:02:00,
2013-07-18 22:12:00,58.0,34.0,-100.00,NNW,340,2.0,14.0,40,0.00,,,0.20,5.000000,,2013-07-19 04:12:00,
2013-07-18 22:22:00,58.0,34.0,-100.00,NNW,340,2.0,14.0,40,0.00,,,0.20,5.000000,,2013-07-19 04:22:00,
2013-07-18 22:33:00,58.0,34.0,-100.00,NNW,340,2.0,14.0,40,0.00,,,0.20,5.000000,,2013-07-19 04:33:00,
2013-07-18 22:40:00,57.0,34.0,-100.00,North,349,1.0,8.0,42,0.00,,,0.00,0.000000,,2013-07-19 04:40:00,
2013-07-18 23:11:00,57.0,34.0,-100.00,North,349,1.0,8.0,42,0.00,,,0.00,0.000000,,2013-07-19 05:11:00,
2013-07-18 23:22:00,57.0,34.0,-100.00,North,349,1.0,8.0,42,0.00,,,0.00,0.000000,,2013-07-19 05:22:00,
2013-07-18 23:32:00,57.0,34.0,-100.00,North,349,1.0,8.0,42,0.00,,,0.00,0.000000,,2013-07-19 05:32:00,
2013-07-18 23:40:00,55.0,26.0,-100.00,NNE,30,0.0,4.0,33,0.00,,,0.00,0.000000,,2013-07-19 05:40:00,